Regional Weather Roundup
Issued by NWS

Home | Current Version | Previous Version | Graphics & Text | Print | Product List | Glossary On
Versions: 1 2 3 4 5 6 7 8 9 10 11 12 13 14 15 16 17 18 19 20 21 22 23 24 25 26 27 28 29 30 31 32 33 34 35 36 37 38 39 40 41 42 43 44 45 46 47 48 49 50
000
ASUS43 KIND 151759
RWRIN

WEATHER ROUNDUP FOR INDIANA
NATIONAL WEATHER SERVICE INDIANAPOLIS IN
200 PM EDT MON SEP 15 2014

NOTE: "FAIR" INDICATES FEW OR NO CLOUDS BELOW 12,000 FEET WITH NO
SIGNIFICANT WEATHER AND/OR OBSTRUCTIONS TO VISIBILITY.

* - STATION DOES NOT REPORT WEATHER SUCH AS PRECIPITATION OR FOG.

+ - STATION NOT QUALITY CONTROLLED BY THE NATIONAL WEATHER SERVICE.
    USE DATA WITH CAUTION...ESPECIALLY DEWPOINT AND RELATIVE
    HUMIDITY OBSERVATIONS.

INZ001>003-010>013-019-020-151900-
NORTHWEST INDIANA

CITY           SKY/WX    TMP DP  RH WIND       PRES   REMARKS
GARY /AIRPORT/ CLOUDY    61  52  72 S8        30.13F
VALPARAISO     CLOUDY    58  50  75 S9        30.14S
6HR MIN TEMP:  50; 6HR MAX TEMP:  58; 6HR PCP:  0.01;


$$

LMZ046-743>745-151900-
SOUTHERN LAKE MICHIGAN

STATION/POSITION TIME  TEMP WIND        PRES
                       AIR  DIR/SP/G
                 (UTC) (F)  (DEG/KT/KT) (MB)
MICHIGAN CITY    1700   57  160/  9/ 11   N/A

$$

INZ004-005-014>016-021>024-151900-
NORTH CENTRAL INDIANA

CITY           SKY/WX    TMP DP  RH WIND       PRES   REMARKS
ELKHART        CLOUDY    57  48  72 SW5       30.14F
GOSHEN         CLOUDY    60  52  74 S7        30.13F
6HR MIN TEMP:  50; 6HR MAX TEMP:  60; 6HR PCP:  0.06;

PERU/GRISSOM   RAIN      55  55 100 S10       30.14F FOG
SOUTH BEND     CLOUDY    59  51  75 SW6       30.14F
6HR MIN TEMP:  51; 6HR MAX TEMP:  59; 6HR PCP:  0.01;


$$

INZ006>009-017-018-025>027-151900-
NORTHEAST INDIANA

CITY           SKY/WX    TMP DP  RH WIND       PRES   REMARKS
ANGOLA *+      CLOUDY    57  48  72 SW7       30.14F
FORT WAYNE     LGT RAIN  57  54  89 S3        30.17F
6HR MIN TEMP:  48; 6HR MAX TEMP:  58; 6HR PCP:  0.05;


$$

INZ028-029-035-036-043>045-051>053-151900-
WEST CENTRAL INDIANA

CITY           SKY/WX    TMP DP  RH WIND       PRES   REMARKS
GREENCASTLE +  LGT RAIN  59  52  77 S3        30.17F
LAFAYETTE      CLOUDY    56  54  93 S10G17    30.09F FOG
6HR MIN TEMP:  46; 6HR MAX TEMP:  57; 6HR PCP:  0.36;

TERRE HAUTE    CLOUDY    62  54  74 SE10      30.14F
6HR MIN TEMP:  46; 6HR MAX TEMP:  64; 6HR PCP: TRACE;


$$

INZ030>032-037>040-046>048-054>057-064-065-151900-
CENTRAL INDIANA

CITY           SKY/WX    TMP DP  RH WIND       PRES   REMARKS
COLUMBUS       CLOUDY    66  50  55 SW5       30.18R
INDIANAPOLIS   CLOUDY    63  51  65 W8        30.17F THUNDER
6HR MIN TEMP:  51; 6HR MAX TEMP:  65;

-EAGLE CREEK   TSTM      63  50  62 SW6       30.18F
6HR MIN TEMP:  50; 6HR MAX TEMP:  67; 6HR PCP: TRACE;

KOKOMO *+      CLOUDY    55  52  88 SW6       30.17F
MT COMFORT *+  PTSUNNY   64  43  45 W5        30.18F
SHELBYVILLE    CLOUDY    69  50  50 W10       30.18R
6HR MIN TEMP:  49; 6HR MAX TEMP:  71;


$$

INZ033-034-041-042-049-050-058-059-151900-
EAST CENTRAL INDIANA

CITY           SKY/WX    TMP DP  RH WIND       PRES   REMARKS
MUNCIE         CLOUDY    63  48  58 SW10      30.18R
6HR MIN TEMP:  49; 6HR MAX TEMP:  68;


$$

INZ060-061-067>069-081>083-085>088-151900-
SOUTHWEST INDIANA

CITY           SKY/WX    TMP DP  RH WIND       PRES   REMARKS
EVANSVILLE     PTSUNNY   73  54  51 SW5       30.14F
6HR MIN TEMP:  52; 6HR MAX TEMP:  73;


$$

INZ062-063-066-070>080-084-089>092-151900-
SOUTH CENTRAL AND SOUTHEAST INDIANA

CITY           SKY/WX    TMP DP  RH WIND       PRES   REMARKS
BLOOMINGTON    CLOUDY    65  54  67 VRB5      30.19R
6HR MIN TEMP:  47; 6HR MAX TEMP:  65;


$$



USA.gov is the U.S. government's official web portal to all federal, state and local government web resources and services.